Lexington Weather

Lexington, Massachusetts, USA

34°F
4/16/2021 10:37am 
  • Lexington Conditions: Snow, Fog, Overcast
  • Temperature: 34.0°F / 1.1°C 
  • Dew Point: 32.7°F 
  • Relative Humidity: 95
  • Wind: Calm, 10-min avg: Calm, gust: None
  • Barometer: 29.48 in Steady
  • Visibility: ½ mile
  • Snow Today: 1.3 in
  •   

Regional Weather Roundup
for Boston / Norton, MA

        
000
ASUS41 KBOX 101704
RWRBOX

REGIONAL WEATHER ROUNDUP
NATIONAL WEATHER SERVICE BOSTON/NORTON MA
100 PM EDT SAT APR 10 2021

NOTE:  "FAIR" INDICATES FEW OR NO CLOUDS BELOW 12,000 FEET WITH NO 
SIGNIFICANT WEATHER AND/OR OBSTRUCTIONS TO VISIBILITY.

MAZALL-101800-
EASTERN MASSACHUSETTS
  
CITY           SKY/WX    TMP DP  RH WIND       PRES   REMARKS
BOSTON         MOSUNNY   70  50  49 SE10      29.90F                  
BEVERLY        SUNNY     70  50  49 VRB6      29.88F                  
LAWRENCE       SUNNY     70  50  49 SW6       29.90F                  
BEDFORD        SUNNY     74  52  46 VRB6      29.88F                  
BLUE HILL        N/A     71  51  49 SW9       29.90F                  
NORWOOD        SUNNY     75  51  43 SW12      29.89F                  
MARSHFIELD     SUNNY     70  52  52 VRB7G13   29.91F                  
PLYMOUTH       SUNNY     64  49  57 S9        29.92F                  
TAUNTON        SUNNY     68  50  52 VRB7      29.92F                  
NEW BEDFORD    SUNNY     64  50  60 SW12      29.94F                  
$$

MAZALL-101800-
CAPE COD AND THE ISLANDS
  
CITY           SKY/WX    TMP DP  RH WIND       PRES   REMARKS
FALMOUTH       MOSUNNY   57  48  72 W16       29.96F                  
HYANNIS        MOSUNNY   57  47  69 SW13      29.94F                  
CHATHAM        MOSUNNY   53  46  77 SW12G20   29.97F                  
PROVINCETOWN   MOSUNNY   62  49  62 SW14      29.94F                  
NANTUCKET      CLOUDY    50  45  83 SW14      29.99F                  
MARTHAS VNYRD  CLOUDY    56  47  71 S15       29.97F                  
$$
 
MAZALL-101800-
CENTRAL AND WESTERN MASSACHUSETTS
  
CITY           SKY/WX    TMP DP  RH WIND       PRES   REMARKS
WORCESTER      SUNNY     69  49  48 W6        29.91F                  
FITCHBURG      MOSUNNY   72  51  47 E6        29.89F                  
ORANGE         SUNNY     69  50  50 S6        29.90F                  
SPRINGFIELD    MOSUNNY   71  51  48 S7        29.89F                  
WESTFIELD      SUNNY     71  52  50 SE10      29.89F                  
NORTH ADAMS    SUNNY     71  50  47 VRB6      29.88F                  
PITTSFIELD     SUNNY     69  50  50 SW7       29.89F                  
$$
 
RIZALL-101800-
RHODE ISLAND
  
CITY           SKY/WX    TMP DP  RH WIND       PRES   REMARKS
PROVIDENCE     MOSUNNY   68  53  58 SE9       29.93F                  
NEWPORT        SUNNY     58  50  75 SW8       29.94F                  
BLOCK ISLAND   CLOUDY    55  47  74 SW12      29.99F                  
SMITHFIELD     SUNNY     70  55  59 W8        29.92F                  
WESTERLY       CLOUDY    57  47  69 SW12      29.97F                  
$$
 
CTZALL-101800-
CONNECTICUT
  
CITY           SKY/WX    TMP DP  RH WIND       PRES   REMARKS
BRADLEY INTL   MOSUNNY   71  52  50 SW7       29.90F                  
HARTFORD       MOSUNNY   70  53  54 S10       29.92F                  
BRIDGEPORT     CLOUDY    58  48  69 SW9       29.98F                  
DANBURY        PTSUNNY   67  53  61 SW15G24   29.96F                  
GROTON         PTSUNNY   54  48  80 S12       29.97F                  
NEW HAVEN      CLOUDY    58  50  75 S9        29.97F                  
CHESTER        FAIR      64  52  63 SW9       29.96F                  
MERIDEN        SUNNY     67  49  52 S12       29.94F                  
WILLIMANTIC    SUNNY     68  52  56 W8G17     29.93F                  
OXFORD         PTSUNNY   65  55  70 VRB5      29.96F                  
$$

MEZ002-015-021-024-NHZ003-005-008-011-012-014-VTZ005-008-101800-
NORTHERN NEW ENGLAND
  
CITY           SKY/WX    TMP DP  RH WIND       PRES   REMARKS
PORTLAND ME    MOSUNNY   68  44  42 S9        29.88F                  
BANGOR ME      MOSUNNY   68  46  45 VRB5      29.89F                  
CONCORD NH     SUNNY     71  48  43 CALM      29.88F                  
MANCHESTER NH  MOSUNNY   74  48  39 SE5       29.87F                  
NASHUA NH      MOSUNNY   73  52  47 VRB3      29.88F                  
PORTSMOUTH NH  PTSUNNY   70  43  36 CALM      29.89F                  
JAFFREY NH     SUNNY     70  50  49 S9        29.90F                  
KEENE NH       SUNNY     70  51  51 S8        29.89F                  
BURLINGTON VT  MOSUNNY   71  49  45 SW10      29.88F                  
MT. WASHINGTON PTSUNNY   48  37  66 E8          N/A                   
$$

NYZ052-076-101800-
EASTERN NEW YORK
  
CITY           SKY/WX    TMP DP  RH WIND       PRES   REMARKS
ALBANY         MOSUNNY   66  50  56 SW3       29.90F                  
NEW YORK CITY  PTSUNNY   65  50  58 S8        29.97F                  
$$
 
ANZALL-101800-
MARINE OBSERVATIONS
  
STATION/POSITION TIME  TEMP    WIND        PRES    VSBY  WAVE
                       AIR SEA DIR/SP/G                  HT/PER
                 (UTC) (F)     (DEG/KT/KT) (MB)    (MI)  (FT/S)
BOSTON BUOY      1640   50 46  130/  6/  8 1013.5F
BUZZARDS BAY     1600          210/ 14/ 15 1016.9F
NANTUCKET SOUND  1640      47                N/A
MASS BAY-STELLWA 1604   49     210/  8/ 10 1012.7F  1 7/8  4/11
ISLE OF SHOALS   1600   57     180/  6/  7 1013.1F
S OF BLOCK IS    1626      47                N/A           3/11
$$

......................KEY.........................
  SKY/WX - SKY CONDITION/PRESENT WEATHER
  TMP    - TEMPERATURE IN FAHRENHEIT
  DWPT   - DEWPOINT IN FAHRENHEIT
  RH     - RELATIVE HUMIDITY IN PERCENT
  WIND   - DIRECTION AND SPEED IN MPH
  PRES   - MEAN SEA LEVEL PRESSURE IN INCHES OF HG
  WCI    - WIND CHILL INDEX
  VSB    - VISIBILITY IN MILES
  HX     - HEAT INDEX
  TC     - TEMPERATURE IN CELSIUS
  VRB    - VARIABLE WIND DIRECTION
  N/A    - NOT AVAILABLE
  
      

Other recent Regional Weather Roundups

Fri Apr 16, 10:05am

Fri Apr 16, 9:04am

Fri Apr 16, 8:04am

Fri Apr 16, 7:04am

Fri Apr 16, 6:04am

Fri Apr 16, 5:04am

Fri Apr 16, 4:04am

Fri Apr 16, 3:04am

Fri Apr 16, 2:04am

Fri Apr 16, 1:04am

Fri Apr 16, 12:04am

Thu Apr 15, 11:05pm

Thu Apr 15, 10:04pm

Thu Apr 15, 9:04pm

Thu Apr 15, 8:04pm

Thu Apr 15, 7:05pm

Thu Apr 15, 6:04pm

Thu Apr 15, 5:05pm

Thu Apr 15, 4:04pm

Thu Apr 15, 3:05pm

Thu Apr 15, 2:04pm

Thu Apr 15, 1:05pm

Thu Apr 15, 12:04pm

Thu Apr 15, 11:04am

Thu Apr 15, 10:05am

Thu Apr 15, 9:04am

Thu Apr 15, 8:04am

Thu Apr 15, 7:04am

Thu Apr 15, 6:04am

Thu Apr 15, 5:04am

Thu Apr 15, 4:04am

Thu Apr 15, 3:04am

Thu Apr 15, 2:04am

Thu Apr 15, 1:04am

Thu Apr 15, 12:04am

Wed Apr 14, 11:04pm

Wed Apr 14, 10:04pm

Wed Apr 14, 9:04pm

Wed Apr 14, 8:04pm

Wed Apr 14, 7:04pm

Wed Apr 14, 6:04pm

Wed Apr 14, 5:05pm

Wed Apr 14, 4:04pm

Wed Apr 14, 3:05pm

Wed Apr 14, 2:04pm

Wed Apr 14, 1:05pm

Wed Apr 14, 12:04pm

Wed Apr 14, 11:04am

Wed Apr 14, 10:04am

Wed Apr 14, 9:04am

Wed Apr 14, 8:04am

Wed Apr 14, 7:04am

Wed Apr 14, 6:04am

Wed Apr 14, 5:04am

Wed Apr 14, 4:04am

Wed Apr 14, 3:04am

Wed Apr 14, 2:04am

Wed Apr 14, 1:04am

Wed Apr 14, 12:04am

Tue Apr 13, 11:04pm

Tue Apr 13, 10:05pm

Tue Apr 13, 9:05pm

Tue Apr 13, 8:05pm

Tue Apr 13, 7:04pm

Tue Apr 13, 6:04pm

Tue Apr 13, 5:05pm

Tue Apr 13, 4:04pm

Tue Apr 13, 3:04pm

Tue Apr 13, 2:05pm

Tue Apr 13, 1:04pm

Tue Apr 13, 12:05pm

Tue Apr 13, 11:05am

Tue Apr 13, 10:04am

Tue Apr 13, 9:04am

Tue Apr 13, 8:04am

Tue Apr 13, 7:04am

Tue Apr 13, 6:04am

Tue Apr 13, 5:04am

Tue Apr 13, 4:04am

Tue Apr 13, 3:04am

Tue Apr 13, 2:04am

Tue Apr 13, 1:04am

Tue Apr 13, 12:05am

Mon Apr 12, 11:04pm

Mon Apr 12, 10:04pm

Mon Apr 12, 9:04pm

Mon Apr 12, 8:04pm

Mon Apr 12, 7:05pm

Mon Apr 12, 6:04pm

Mon Apr 12, 5:04pm

Mon Apr 12, 4:04pm

Mon Apr 12, 3:05pm

Mon Apr 12, 2:04pm

Mon Apr 12, 1:05pm

Mon Apr 12, 12:04pm

Mon Apr 12, 11:04am

Mon Apr 12, 10:04am

Mon Apr 12, 9:04am

Mon Apr 12, 8:04am

Mon Apr 12, 7:04am

Mon Apr 12, 6:04am

Mon Apr 12, 5:04am

Mon Apr 12, 4:04am

Mon Apr 12, 3:04am

Mon Apr 12, 2:04am

Mon Apr 12, 1:05am

Mon Apr 12, 12:04am

Sun Apr 11, 11:04pm

Sun Apr 11, 10:04pm

Sun Apr 11, 9:04pm

Sun Apr 11, 8:04pm

Sun Apr 11, 7:04pm

Sun Apr 11, 6:05pm

Sun Apr 11, 5:05pm

Sun Apr 11, 4:04pm

Sun Apr 11, 3:05pm

Sun Apr 11, 2:05pm

Sun Apr 11, 1:05pm

Sun Apr 11, 12:04pm

Sun Apr 11, 11:05am

Sun Apr 11, 10:05am

Sun Apr 11, 9:04am

Sun Apr 11, 8:04am

Sun Apr 11, 7:04am

Sun Apr 11, 6:04am

Sun Apr 11, 5:04am

Sun Apr 11, 4:04am

Sun Apr 11, 3:04am

Sun Apr 11, 2:04am

Sun Apr 11, 1:05am

Sun Apr 11, 12:04am

Sat Apr 10, 11:05pm

Sat Apr 10, 10:04pm

Sat Apr 10, 9:04pm

Sat Apr 10, 8:04pm

Sat Apr 10, 7:05pm

Sat Apr 10, 6:04pm

Sat Apr 10, 5:04pm

Sat Apr 10, 4:04pm

Sat Apr 10, 3:04pm

Sat Apr 10, 2:05pm

Sat Apr 10, 12:04pm

Sat Apr 10, 11:04am

Sat Apr 10, 10:04am

Sat Apr 10, 9:04am

Sat Apr 10, 8:04am

Sat Apr 10, 7:04am

Sat Apr 10, 6:04am

Sat Apr 10, 5:04am

Sat Apr 10, 4:04am

Sat Apr 10, 3:04am

Sat Apr 10, 2:04am

Sat Apr 10, 1:05am

Sat Apr 10, 12:04am

Fri Apr 9, 11:04pm

Fri Apr 9, 10:05pm

Fri Apr 9, 9:04pm

Fri Apr 9, 8:05pm

Fri Apr 9, 7:05pm

Fri Apr 9, 6:04pm

Fri Apr 9, 5:04pm

Fri Apr 9, 4:05pm

Fri Apr 9, 3:05pm

Fri Apr 9, 2:04pm

Fri Apr 9, 1:04pm

Fri Apr 9, 12:04pm

Fri Apr 9, 11:05am

Meta data:

ID: 2a94ce16-54d1-477e-9d46-d5f862d09b5f
Link: https://api.weather.gov/products/2a94ce16-54d1-477e-9d46-d5f862d09b5f